This demonstration page uses our WeatherBlox Daily Observations layout. Learn more.

Left ArrowRight Arrow

30.21309, -93.2044

Hourly Observations for July 23, 2019

Temp ( °F °C ) Dew Point ( °F °C ) Humidity (%) Winds ( mph kmh ) Pressure ( in mb ) Visibility ( mi km ) Precip ( " mm )
12:15 am 00:15 Cloudy 78 25.4 75 23.9 91 91 Calm 29.97 1015 10 16 0.01 0.25
12:35 am 00:35 Cloudy 77 25 75 23.8 93 93 Calm 29.97 1015 10 16 0.01 0.25
12:55 am 00:55 Cloudy 77 25.2 75 23.9 93 93 SE 5 7 29.97 1015 10 16 0.01 0.25
1:15 am 01:15 Cloudy 77 25 76 24.2 95 95 SSE 6 9 29.96 1015 10 16 0.00 0.00
1:35 am 01:35 Cloudy 78 25.5 75 24 91 91 SW 6 9 29.96 1015 10 16 0.00 0.00
1:55 am 01:55 Cloudy 78 25.7 75 24 90 90 WSW 7 11 29.96 1015 10 16 0.00 0.00
2:15 am 02:15 Cloudy 79 26 74 23.4 86 86 W 5 7 29.96 1015 10 16 0.00 0.00
2:35 am 02:35 Mostly Cloudy 78 25.6 74 23.5 88 88 W 3 6 29.96 1015 10 16 0.00 0.00
2:55 am 02:55 Partly Cloudy 78 25.4 74 23.5 89 89 NW 3 6 29.96 1015 10 16 0.00 0.00
3:15 am 03:15 Clear 77 25.2 74 23.5 90 90 W 3 6 29.96 1015 10 16 0.00 0.00
3:35 am 03:35 Clear 78 25.3 74 23.5 90 90 W 3 6 29.95 1014 10 16 0.00 0.00
3:55 am 03:55 Partly Cloudy 77 25.2 74 23.6 91 91 Calm 29.95 1014 10 16 0.00 0.00
4:15 am 04:15 Mostly Cloudy 76 24.6 74 23.6 94 94 Calm 29.94 1014 10 16 0.00 0.00
4:35 am 04:35 Cloudy 76 24.7 75 23.9 95 95 Calm 29.95 1014 10 16 0.00 0.00
4:55 am 04:55 Cloudy 77 25 75 23.7 93 93 Calm 29.94 1014 10 16 0.00 0.00
5:15 am 05:15 Cloudy 76 24.7 74 23.6 94 94 Calm 29.94 1014 10 16 0.00 0.00
5:35 am 05:35 Mostly Cloudy 77 25 74 23.6 92 92 Calm 29.94 1014 10 16 0.00 0.00
6:00 am 06:00 Mostly Cloudy 77 25 75 24 94 94 Calm 29.95 1014 10 16 0.00 0.00
6:50 am 06:50 Mostly Cloudy 75 24 75 24 100 100 Calm 26.69 904 10 16 0.00 0.00
7:50 am 07:50 Partly Cloudy 79 26 73 23 84 84 NNW 6 9 29.97 1015 10 16 0.00 0.00
8:50 am 08:50 Partly Cloudy 79 26 73 23 84 84 NNE 7 11 29.98 1015 10 16 0.00 0.00
9:28 am 09:28 Cloudy 79 26 73 23 84 84 NE 7 11 30.00 1016 10 16 0.00 0.00
9:54 am 09:54 Cloudy 79 26 73 23 84 84 NE 5 7 30.00 1016 10 16 0.00 0.00
10:50 am 10:50 Cloudy with Heavy Rain 79 26 73 23 84 84 NE 5 7 30.00 1016 1 2 0.00 0.00
11:15 am 11:15 Cloudy 79 26 75 24 89 89 Calm 30.00 1016 7 11 0.00 0.00
11:54 am 11:54 Cloudy 79 26 75 24 89 89 NNW 5 7 29.99 1016 7 11 0.00 0.00
12:54 pm 12:54 Cloudy with Heavy Rain 79 26 75 24 89 89 N 15 24 29.99 1016 1 2 0.00 0.00
1:30 pm 13:30 Cloudy 75 24 73 23 94 94 N 15 24 29.99 1016 10 16 0.00 0.00
1:55 pm 13:55 Cloudy 75 24 75 24 100 100 N 8 13 29.98 1015 10 16 0.00 0.00
2:54 pm 14:54 Cloudy 77 25 73 23 89 89 N 17 28 29.97 1015 10 16 0.00 0.00
3:55 pm 15:55 Mostly Cloudy 79 26 73 23 84 84 N 12 19 29.96 1015 10 16 0.00 0.00
4:55 pm 16:55 Mostly Cloudy 81 27 72 22 74 74 N 6 9 29.95 1014 10 16 0.00 0.00
5:50 pm 17:50 Mostly Cloudy 84 29 68 20 58 58 NNE 10 17 29.95 1014 10 16 0.00 0.00
6:50 pm 18:50 Partly Cloudy 82 28 68 20 62 62 NNE 7 11 29.97 1015 10 16 0.00 0.00
7:55 pm 19:55 Mostly Sunny 79 26 68 20 70 70 NNE 7 11 29.98 1015 10 16 0.00 0.00
8:55 pm 20:55 Mostly Clear 75 24 68 20 78 78 NNE 6 9 29.99 1016 10 16 0.00 0.00
9:50 pm 21:50 Mostly Clear 75 24 68 20 78 78 NNE 14 22 30.01 1016 10 16 0.00 0.00
10:15 pm 22:15 Clear 75 23.7 67 19.7 78 78 NNE 13 20 30.02 1017 10 16 0.00 0.00
10:35 pm 22:35 Clear 74 23.5 67 19.4 78 78 NNE 13 20 30.02 1017 10 16 0.00 0.00
10:55 pm 22:55 Clear 74 23.5 66 18.9 75 75 NNE 13 20 30.03 1017 10 16 0.00 0.00
11:15 pm 23:15 Clear 73 23 65 18.6 76 76 NNE 13 20 30.03 1017 10 16 0.00 0.00
11:35 pm 23:35 Clear 73 22.6 65 18.6 78 78 NNE 14 22 30.03 1017 10 16 0.00 0.00
11:55 pm 23:55 Clear 72 22.2 66 19 82 82 NNE 14 22 30.03 1017 10 16 0.00 0.00

Powered by AerisWeather